[[{"header":{"parameterUnit":"m.s-1","parameterCategory":1,"la1":30.2991,"la2":30.254,"lo1":-89.0895,"lo2":-89.0444,"dy":0.0017,"dx":0.0017,"nx":28,"ny":28,"refTime":"2024-02-27T09:00:00:Z","depth":0,"parameterNumber":2,"parameterNumberName":"U-component_of_WINDS"},"data":[0,0,0,0,0,0,0,0,0,0,0,0,0,0,0,0,0,0,0,0,0,0,0,0,0,0,0,0,0,0,0,0,0,0,0,0,0,0,0,0,0,0,0,0,0,0,0,0,0,0,0,0,0,0,0,0,0,0,0.6954,0.6953,0,0.6821,0.682,0.6818,0.6731,0.673,0.673,0.6729,0.6594,0.6591,0.6588,0,0,0,0,0,0,0,0,0,0,0,0,0,0.7133,0.713,0.6954,0.6953,0.6951,0.6822,0.682,0.6818,0.6731,0.673,0.6729,0.6729,0.6595,0.6592,0.6588,0,0,0,0,0,0,0,0,0,0,0,0,0,0.7033,0.7129,0.6955,0.6892,0.6885,0.6822,0.682,0.6817,0.6731,0.673,0.6729,0.6728,0.6596,0.6592,0.6587,0.6577,0,0,0.6573,0.6571,0,0,0,0,0,0,0,0,0.7039,0.7027,0.6903,0.6896,0.6888,0.6792,0.6833,0.6737,0.6731,0.679,0.6729,0.6728,0.6661,0.6651,0.6628,0.657,0.6564,0.6573,0.657,0.6568,0.6567,0,0,0,0,0,0,0,0.7046,0.7032,0.6902,0.6901,0.6892,0.687,0.6855,0.6814,0.6732,0.6784,0.6778,0.6763,0.6657,0.6632,0.6624,0.6562,0.6573,0.6569,0.6566,0.6564,0.6489,0.649,0,0,0,0,0,0,0.7063,0.7038,0.6906,0.6898,0.6963,0.6868,0.6851,0.6824,0.6732,0.6717,0.6764,0.676,0.6641,0.6629,0.6619,0.66,0.6568,0.6564,0.6561,0.6489,0.649,0.649,0,0,0,0,0,0,0.7067,0.7052,0.6911,0.6966,0.6947,0.6866,0.6836,0.6821,0.6797,0.6716,0.6701,0.6755,0.6639,0.6625,0.6588,0.6594,0.6562,0.6558,0.6488,0.6489,0.649,0.6564,0,0,0,0,0,0,0.7072,0.7054,0.7049,0.6967,0.6944,0.6882,0.6836,0.6819,0.6789,0.6782,0.6704,0.669,0.6638,0.6595,0.6583,0.6588,0.6554,0.6487,0.6488,0.649,0.656,0.6567,0.6573,0,0,0,0,0,0.7079,0.7075,0.7049,0.7034,0.6936,0.6883,0.687,0.681,0.679,0.6785,0.6733,0.6692,0.6596,0.6592,0.6578,0.6581,0.6486,0.6488,0.649,0.6557,0.6566,0.6573,0,0,0,0,0,0,0.716,0.7063,0.7033,0.7002,0.6952,0.6868,0.6859,0.6821,0.6775,0.677,0.6698,0.6681,0.6651,0.6612,0.6609,0.6566,0.6536,0.6535,0.6592,0.66,0.6606,0.6616,0.655,0,0,0,0,0,0.7175,0.7139,0.7056,0.7037,0.7013,0.6941,0.6916,0.6874,0.6818,0.6796,0.6742,0.669,0.6647,0.6621,0.6578,0.6554,0.6536,0.6549,0.6556,0.6561,0.6562,0.6546,0.6551,0.6496,0.6496,0.6496,0,0,0.7204,0.7146,0.7129,0.7052,0.7008,0.6973,0.6923,0.6889,0.6863,0.6791,0.6752,0.671,0.6648,0.6617,0.6601,0.6584,0.6573,0.6563,0.6569,0.6565,0.6549,0.6554,0.6559,0.6497,0.6497,0.6497,0,0,0.724,0.7192,0.7171,0.7128,0.7061,0.7013,0.7008,0.6931,0.69,0.686,0.6805,0.6773,0.6702,0.6659,0.6629,0.6648,0.6609,0.6636,0.667,0.6656,0.666,0.6664,0.6671,0.6675,0.6636,0.6637,0.6637,0,0.7285,0.723,0.7166,0.7134,0.7102,0.7035,0.7014,0.6975,0.6898,0.6877,0.6859,0.6768,0.6721,0.668,0.6685,0.6662,0.6654,0.6645,0.6665,0.6668,0.667,0.6676,0.6679,0.664,0.664,0.6639,0.6639,0,0.7289,0.7252,0.7243,0.717,0.7137,0.7111,0.7042,0.7017,0.6978,0.6932,0.6892,0.6833,0.6776,0.6763,0.6725,0.6716,0.6708,0.6678,0.6647,0.668,0.6685,0.6687,0.6646,0.6644,0.6643,0.6642,0,0,0.7373,0.7264,0.7262,0.7228,0.715,0.712,0.7091,0.7035,0.7015,0.6964,0.6938,0.6879,0.6851,0.6816,0.6772,0.676,0.678,0.6731,0.6729,0.6743,0.6767,0.6791,0.6795,0.6753,0.6753,0.6753,0.6773,0,0.7397,0.7341,0.7282,0.7247,0.7212,0.7148,0.7122,0.7072,0.7028,0.6992,0.6943,0.6903,0.6869,0.6847,0.6832,0.6781,0.6784,0.6778,0.6729,0.6728,0.6748,0.6797,0.6822,0.6843,0.6774,0.6775,0.6775,0,0.7419,0.7371,0.7332,0.7257,0.724,0.7218,0.7163,0.7129,0.707,0.7039,0.7,0.6954,0.692,0.6892,0.6845,0.6842,0.6818,0.679,0.6789,0.6783,0.6754,0.6793,0.6848,0.6852,0.6777,0.6777,0.6777,0,0.7485,0.741,0.7377,0.735,0.7262,0.7248,0.721,0.7151,0.7121,0.7073,0.7053,0.7001,0.6973,0.6935,0.6875,0.686,0.6835,0.6802,0.6808,0.681,0.6806,0.6808,0.686,0.679,0.679,0.679,0.679,0,0.7519,0.7498,0.7406,0.7386,0.7361,0.7293,0.727,0.7226,0.7174,0.7145,0.7086,0.7059,0.6982,0.6947,0.69,0.6869,0.6856,0.683,0.6819,0.6836,0.684,0.682,0.6818,0.6791,0.6791,0.679,0.679,0,0.7589,0.7526,0.7486,0.7406,0.7385,0.737,0.7301,0.7279,0.7231,0.7195,0.7183,0.7108,0.7064,0.7,0.6936,0.6905,0.688,0.6861,0.69,0.6893,0.6904,0.6904,0.6946,0.6948,0.6877,0.6878,0.6878,0,0.7615,0.7597,0.7515,0.7491,0.7455,0.7417,0.7387,0.7319,0.729,0.7221,0.7208,0.7159,0.7116,0.7048,0.6988,0.6939,0.6918,0.6936,0.691,0.6929,0.6919,0.6921,0.692,0.6943,0.6944,0.6945,0.6946,0,0.7669,0.7638,0.7597,0.7544,0.751,0.7465,0.7418,0.7402,0.7324,0.7294,0.7248,0.7214,0.7149,0.7101,0.7044,0.7005,0.6963,0.6954,0.6953,0.6971,0.6995,0.6983,0.6918,0.6954,0.6953,0.6952,0.6952,0.6951,0.7717,0.7699,0.7638,0.7594,0.7551,0.7508,0.7484,0.7433,0.7393,0.7335,0.7297,0.7253,0.7194,0.7113,0.7076,0.7041,0.7023,0.7022,0.7021,0.7022,0.7029,0.7001,0.703,0.7029,0.7029,0.7029,0.7029,0,0.7769,0.7726,0.7686,0.7622,0.7587,0.7549,0.7495,0.7469,0.743,0.7379,0.7338,0.7285,0.7238,0.7174,0.7123,0.7107,0.7086,0.7096,0.7097,0.7089,0.7047,0.7053,0.7113,0.7113,0.7113,0.7113,0.7113,0.7113,0.7791,0.7758,0.7721,0.7666,0.7623,0.7579,0.7552,0.7512,0.7471,0.7414,0.7375,0.7333,0.7277,0.7221,0.7177,0.7159,0.7144,0.716,0.7137,0.7099,0.7091,0.7084,0.709,0.7157,0.7157,0.7181,0.7181,0.7181]},{"header":{"parameterUnit":"m.s-1","parameterCategory":1,"la1":30.2991,"la2":30.254,"lo1":-89.0895,"lo2":-89.0444,"dy":0.0017,"dx":0.0017,"nx":28,"ny":28,"refTime":"2024-02-27T09:00:00:Z","depth":0,"parameterNumber":3,"parameterNumberName":"V-component_of_WINDS"},"data":[0,0,0,0,0,0,0,0,0,0,0,0,0,0,0,0,0,0,0,0,0,0,0,0,0,0,0,0,0,0,0,0,0,0,0,0,0,0,0,0,0,0,0,0,0,0,0,0,0,0,0,0,0,0,0,0,0,0,5.3333,5.3333,0,5.3273,5.3272,5.3272,5.3222,5.3221,5.3221,5.322,5.316,5.3158,5.3157,0,0,0,0,0,0,0,0,0,0,0,0,0,5.3407,5.3406,5.3333,5.3333,5.3332,5.3273,5.3272,5.3272,5.3222,5.3221,5.3221,5.322,5.316,5.3159,5.3157,0,0,0,0,0,0,0,0,0,0,0,0,0,5.3364,5.3406,5.3333,5.33,5.3296,5.3273,5.3272,5.3271,5.3222,5.3221,5.3221,5.322,5.316,5.3159,5.3157,5.3163,0,0,5.3152,5.3151,0,0,0,0,0,0,0,0,5.3366,5.3361,5.3306,5.3302,5.3298,5.3254,5.3276,5.3235,5.3222,5.325,5.322,5.3219,5.3192,5.3187,5.3178,5.316,5.3157,5.3152,5.3151,5.315,5.315,0,0,0,0,0,0,0,5.3369,5.3364,5.3309,5.3305,5.33,5.3289,5.3282,5.3268,5.3226,5.3248,5.3244,5.3238,5.319,5.318,5.3176,5.3156,5.3152,5.315,5.3149,5.3149,5.3143,5.3144,0,0,0,0,0,0,5.3377,5.3366,5.3311,5.3308,5.3331,5.3288,5.328,5.3269,5.3226,5.3219,5.3238,5.3236,5.3183,5.3178,5.3174,5.318,5.315,5.3148,5.3148,5.3142,5.3144,5.3144,0,0,0,0,0,0,5.3379,5.3373,5.3314,5.3336,5.3328,5.3288,5.3276,5.3268,5.3258,5.3219,5.3212,5.3236,5.3182,5.3176,5.3167,5.3177,5.3148,5.3146,5.3141,5.3143,5.3144,5.3191,0,0,0,0,0,0,5.3382,5.3374,5.3375,5.3336,5.3327,5.3307,5.3276,5.3268,5.3256,5.3251,5.3215,5.3208,5.3181,5.3169,5.3165,5.3174,5.3145,5.314,5.3142,5.3144,5.3189,5.3194,5.3199,0,0,0,0,0,5.3384,5.339,5.3375,5.3369,5.3327,5.3308,5.3302,5.3271,5.3257,5.3258,5.3233,5.3209,5.3176,5.3169,5.3163,5.3172,5.314,5.3142,5.3143,5.3186,5.3193,5.3198,0,0,0,0,0,0,5.343,5.3384,5.3367,5.3361,5.3339,5.3299,5.33,5.3278,5.326,5.3257,5.3219,5.3211,5.3206,5.3188,5.318,5.3177,5.3155,5.3156,5.3189,5.3195,5.32,5.3206,5.3143,0,0,0,0,0,5.344,5.3427,5.3388,5.3386,5.3376,5.334,5.333,5.3308,5.3284,5.3274,5.3248,5.3226,5.3211,5.3202,5.3186,5.3185,5.3178,5.3189,5.3194,5.3199,5.32,5.3202,5.3207,5.3151,5.3151,5.3151,0,0,5.3459,5.3432,5.3426,5.3394,5.3375,5.3364,5.3332,5.3321,5.3314,5.3272,5.3263,5.3243,5.3216,5.3212,5.3209,5.3197,5.3214,5.3201,5.3205,5.3204,5.3205,5.321,5.3215,5.3152,5.3152,5.3152,0,0,5.3489,5.3466,5.3464,5.3445,5.3416,5.3393,5.3392,5.3356,5.3342,5.3332,5.3302,5.3292,5.3266,5.3249,5.3237,5.3263,5.3241,5.3259,5.3286,5.3288,5.3292,5.3296,5.3308,5.3313,5.326,5.326,5.3261,0,5.3516,5.3498,5.3465,5.3457,5.3445,5.3408,5.3406,5.3389,5.3356,5.335,5.3336,5.3305,5.3284,5.3277,5.3284,5.3274,5.3274,5.3263,5.3294,5.3298,5.3301,5.3312,5.3316,5.3263,5.3263,5.3262,5.3262,0,5.3535,5.3524,5.3525,5.3495,5.3483,5.3478,5.3445,5.3437,5.3417,5.3395,5.3386,5.336,5.3339,5.3335,5.3315,5.3326,5.332,5.3301,5.3278,5.3309,5.3319,5.3323,5.3267,5.3266,5.3265,5.3264,0,0,5.3591,5.3545,5.3546,5.3534,5.35,5.3491,5.3485,5.3465,5.3461,5.3439,5.3435,5.3415,5.3398,5.3385,5.3362,5.3364,5.339,5.3344,5.3343,5.3356,5.3405,5.3421,5.3426,5.3375,5.3375,5.3376,5.3408,0,5.3618,5.3605,5.3576,5.3573,5.3564,5.353,5.3525,5.3505,5.3485,5.3475,5.3453,5.3441,5.3418,5.341,5.341,5.3387,5.34,5.3384,5.3373,5.3373,5.3383,5.3431,5.3447,5.3479,5.3411,5.3412,5.3412,0,5.3646,5.3629,5.3626,5.3596,5.359,5.3587,5.3568,5.3558,5.3535,5.3521,5.3507,5.3482,5.3476,5.3455,5.3447,5.3437,5.3431,5.3419,5.342,5.3419,5.3396,5.3434,5.3487,5.3493,5.3417,5.3417,5.3417,0,5.3691,5.3666,5.3662,5.3652,5.3616,5.3615,5.36,5.3576,5.3567,5.3551,5.3545,5.3528,5.3519,5.3507,5.3479,5.3465,5.3476,5.3451,5.3466,5.3467,5.3471,5.3471,5.3527,5.3463,5.3463,5.3463,5.3463,0,5.3724,5.3724,5.3682,5.368,5.368,5.3647,5.3648,5.363,5.361,5.3604,5.3573,5.3569,5.3531,5.3523,5.3501,5.3501,5.3496,5.3486,5.348,5.349,5.3492,5.3487,5.3485,5.3464,5.3464,5.3464,5.3464,0,5.3774,5.3746,5.374,5.3707,5.3699,5.3701,5.3673,5.367,5.3649,5.3643,5.364,5.3607,5.3596,5.3567,5.3548,5.3534,5.354,5.3528,5.3548,5.3545,5.3563,5.3563,5.3618,5.3625,5.3556,5.3556,5.3557,0,5.3798,5.3798,5.3766,5.376,5.3747,5.3738,5.3729,5.3697,5.369,5.3665,5.3666,5.3653,5.3641,5.3626,5.3601,5.3587,5.3577,5.3597,5.3574,5.3585,5.358,5.3582,5.3583,5.3603,5.3604,5.3605,5.3605,0,5.3845,5.3832,5.382,5.3805,5.3796,5.3782,5.3766,5.3763,5.3728,5.3721,5.371,5.3701,5.3683,5.3672,5.3655,5.364,5.3618,5.3612,5.3616,5.3626,5.3639,5.3636,5.3564,5.3612,5.3611,5.361,5.361,5.361,5.3884,5.3884,5.3862,5.3851,5.3837,5.3823,5.382,5.38,5.379,5.3774,5.3755,5.3747,5.3727,5.3702,5.369,5.3684,5.3672,5.3676,5.3677,5.3679,5.3685,5.3639,5.368,5.368,5.368,5.368,5.3679,0,5.3932,5.3917,5.3907,5.3887,5.388,5.3859,5.3842,5.3837,5.383,5.3813,5.3803,5.3792,5.3781,5.3756,5.3744,5.3744,5.3734,5.3742,5.3743,5.3741,5.3695,5.3695,5.3751,5.3751,5.3751,5.3751,5.3751,5.3751,5.3956,5.3955,5.3939,5.3932,5.3916,5.3909,5.3901,5.389,5.3877,5.3866,5.3857,5.3841,5.3822,5.3808,5.3798,5.3791,5.379,5.3802,5.3792,5.375,5.3743,5.3737,5.3737,5.3801,5.3801,5.3839,5.3839,5.3839]}]]